STARLINK-35289, 65809

Orbit data source: Space-Track

STARLINK-35289, 65809 is a payload satellite owned by SpaceX/Seattle (US) in SSO that was launched on Fri, 26 Sep 2025 UTC via an FALCON 9 launch vehicle from the Air Force Western Test Range (AFWTR). Payload-class satellites include a variety of spacecraft equipped with specific instruments for various scientific and technological missions. These include communications satellites like Starlink; space stations such as the ISS; scientific satellites like the Hubble; Earth observation satellites from companies like Planet Labs, Umbra, and HawkEye 360; GPS; miniature CubeSats for education and research; and military/defense satellites.

Loading next visibility...
Identifier
65809, 2025-218U
Orbit
SSO
Country
Flag of USUS
Related business
Manufacturer
SpaceX/Seattle
Mission
Operational Commercial Communications
Bus & Motor
STARLINK V2MO, Unknown motor
Mass
575 kg wet, ~530 kg dry
Launch date (UTC)
2025-09-26 (9 months ago)
Launch vehicle
FALCON 9
Launch site
Air Force Western Test Range (AFWTR)
Object type
Payload
Rocket body
Debris
Shape & HBR
Box + 2 Pan, 17.7 m
Radar Cross Section
36.964 m², Large (>1 m²)

Expand to show TLE details & history
Last TLE update: 16 hours ago

TLE from 16 hours ago
0 STARLINK-35289
1 65809U 25218U   26171.18445997  .00004838  00000-0  33897-3 0  9996
2 65809  97.3396  32.9096 0001799  74.7993 285.3434 15.05659977 40390
Epoch: 2026-06-20T04:25Z
TLE epoch observation values (Epoch: 2026-06-20T04:25:37.341Z)
Latitude
0.00004°
Longitude
58.10128°
Altitude
552.224 km
Speed
7.586 km/s
True Right ascension
02h 11m 38s
True Declination
0° 00' 00"
Sunlit
Object was in daylight at epoch
Visualization orbit readout
Latitude
Unknown
Longitude
Unknown
Altitude
Unknown
Speed
Unknown
Apparent Right ascension
Unknown
Apparent Declination
Unknown
Sunlit
N/A
Visualization observer readout
Local Sidereal Time
07:18:46
Azimuth
Unknown
Elevation
Unknown
Doppler factor
Unknown
Orbital elements
Apogee altitude
547.708 km
Perigee altitude
545.217 km
Semi-major axis
6,924.6 km
Eccentricity
0.00018
Inclination
97.3396°
RAAN
32.9096°
Arg. of periapsis
74.7993°
True anomaly
285.32352°
Mean anomaly
285.3434°
Eccentric anomaly
285.33346°
Mean motion
3.76661 °/min
Orbital period
95.58 mins
BSTAR
0.00033897
Loading maneuver chart data...
Computing Atmospheric mass density...
Loading historical data...
Loading historical data...
Loading historical data...
Loading historical data...
Loading historical data...
Loading historical data...
Loading historical data...

Documentation

Showing up to 5 results
|